FW7322 Weather Reports


Display with metric or nautical units.
time (UTC)temp
F
wind
direction
speed
MPH
gust
MPH
rain 1hr
in
rain 24hr
in
rain mn
in
humidity
%
barometer
mb
20260509084005 48 155 0.0 0.0 0.00 0.08 0.00 94 1035.0
20260509083503 48 100 0.0 0.0 0.00 0.08 0.00 94 1035.0
20260509083003 48 100 0.0 0.0 0.00 0.08 0.00 94 1035.0
20260509082503 48 99 0.0 0.0 0.00 0.08 0.00 94 1035.1
20260509082002 48 91 0.0 0.0 0.00 0.08 0.00 94 1035.3
20260509081501 48 91 0.0 0.0 0.00 0.08 0.00 94 1035.4
20260509081101 48 91 0.0 0.0 0.00 0.08 0.00 94 1035.4
20260509080559 48 91 0.0 0.0 0.00 0.08 0.00 94 1035.6
20260509075559 49 91 0.0 0.0 0.00 0.08 0.00 94 1035.8
20260509075059 49 91 0.0 0.0 0.00 0.08 0.00 94 1035.7
20260509074658 49 91 0.0 0.0 0.00 0.08 0.00 94 1035.8
20260509074058 49 91 0.0 0.0 0.00 0.08 0.00 94 1035.7
20260509073601 49 91 0.0 0.0 0.00 0.08 0.00 94 1035.7
20260509073106 49 91 0.0 0.0 0.00 0.08 0.00 94 1035.7
20260509072559 49 91 0.0 0.0 0.00 0.08 0.00 94 1035.8
20260509072059 49 91 0.0 0.0 0.00 0.08 0.00 94 1035.6
20260509071556 49 91 0.0 0.0 0.00 0.08 0.00 94 1035.6
20260509071056 49 91 0.0 0.0 0.00 0.08 0.00 94 1035.5
20260509070555 49 91 0.0 0.0 0.00 0.08 0.00 94 1035.6
20260509070057 49 91 0.0 0.0 0.00 0.08 0.00 94 1035.8
20260509065554 49 91 0.0 0.0 0.00 0.08 0.00 94 1035.7
20260509065053 49 91 0.0 0.0 0.00 0.08 0.00 94 1035.9
20260509064553 49 91 0.0 0.0 0.00 0.08 0.00 94 1035.9
20260509064053 49 91 0.0 0.0 0.00 0.08 0.00 94 1036.0
20260509063552 49 91 0.0 0.0 0.00 0.08 0.00 94 1036.1
20260509063059 49 91 0.0 0.0 0.00 0.08 0.00 94 1035.9
20260509062552 49 91 0.0 0.0 0.00 0.08 0.00 94 1035.9
20260509062052 49 91 0.0 0.0 0.00 0.08 0.00 94 1036.0
20260509061606 49 91 0.0 0.0 0.00 0.08 0.00 94 1036.0
20260509061051 49 91 0.0 0.0 0.00 0.08 0.00 94 1036.1
20260509060553 49 87 0.0 0.0 0.00 0.08 0.00 94 1036.3
20260509060051 49 87 0.0 0.0 0.00 0.08 0.00 94 1036.3
20260509055553 49 87 0.0 0.0 0.00 0.08 0.00 94 1036.5
20260509055051 49 87 0.0 0.0 0.00 0.08 0.00 94 1036.5
20260509054558 49 87 0.0 0.0 0.00 0.08 0.00 94 1036.6
20260509054051 49 87 0.0 0.0 0.00 0.08 0.00 94 1036.6
20260509053550 49 87 0.0 0.0 0.00 0.08 0.00 94 1036.8
20260509053059 49 87 0.0 0.0 0.00 0.08 0.00 94 1036.9
20260509052551 49 87 0.0 0.0 0.00 0.08 0.00 94 1037.1
20260509052055 49 87 0.0 0.0 0.00 0.08 0.00 94 1037.1
20260509051552 49 87 0.0 0.0 0.00 0.08 0.00 94 1037.1
20260509051049 49 87 0.0 0.0 0.00 0.08 0.00 94 1036.9
20260509050548 49 87 0.0 0.0 0.00 0.08 0.00 94 1037.0
20260509050050 49 87 0.0 0.0 0.00 0.08 0.00 94 1036.7
20260509045546 49 88 0.0 0.0 0.00 0.10 0.00 94 1036.4
20260509045045 49 88 0.0 0.0 0.00 0.10 0.00 94 1036.3
20260509044550 49 88 0.0 0.0 0.00 0.10 0.00 94 1036.2
20260509044045 49 88 0.0 0.0 0.00 0.10 0.00 94 1036.3
20260509043547 49 88 0.0 0.0 0.00 0.10 0.00 94 1036.4
20260509043044 49 88 0.0 0.0 0.00 0.10 0.00 94 1036.3
20260509042543 49 88 0.0 0.0 0.00 0.10 0.00 94 1036.4
20260509042046 49 88 0.0 0.0 0.00 0.10 0.00 94 1036.1
20260509041543 49 88 0.0 0.0 0.00 0.10 0.00 94 1035.9
20260509041043 49 88 0.0 0.0 0.00 0.10 0.00 94 1035.8
20260509040540 49 88 0.0 0.0 0.00 0.10 0.00 94 1035.9
20260509040042 49 88 0.0 0.0 0.00 0.10 0.00 94 1036.0
20260509035539 49 88 0.0 0.0 0.00 0.10 0.10 94 1036.2
20260509035038 49 88 0.0 0.0 0.00 0.10 0.10 94 1036.3
20260509034539 49 88 0.0 0.0 0.00 0.10 0.10 94 1036.4
20260509034038 49 88 0.0 0.0 0.01 0.10 0.10 94 1036.6
20260509033539 49 88 0.0 0.0 0.01 0.10 0.10 94 1036.5
20260509033039 49 88 0.0 0.0 0.01 0.10 0.10 93 1036.3
20260509032539 49 82 0.0 0.0 0.01 0.10 0.10 93 1036.4
20260509032042 49 82 0.0 0.0 0.01 0.10 0.10 93 1036.5
20260509031538 50 82 0.0 0.0 0.01 0.10 0.10 93 1036.3
20260509031038 50 82 0.0 0.0 0.01 0.10 0.10 93 1036.3
20260509030537 50 82 0.0 0.0 0.01 0.10 0.10 93 1036.4
20260509030038 50 82 0.0 0.0 0.01 0.10 0.10 93 1036.3
20260509025537 50 82 0.0 0.0 0.01 0.10 0.10 94 1036.7
20260509025037 49 82 0.0 0.0 0.01 0.10 0.10 94 1036.6
20260509024537 49 82 0.0 0.0 0.01 0.10 0.10 93 1036.6
20260509024037 49 82 0.0 0.0 0.00 0.09 0.09 93 1036.7
20260509023540 49 82 0.0 0.0 0.00 0.09 0.09 93 1036.9
20260509023039 49 82 0.0 0.0 0.00 0.09 0.09 93 1036.8
20260509022536 49 82 0.0 0.0 0.00 0.09 0.09 93 1036.7
20260509022036 49 82 0.0 0.0 0.00 0.09 0.09 93 1036.5
20260509021536 49 82 0.0 0.0 0.00 0.09 0.09 93 1036.4
20260509021035 49 82 0.0 0.0 0.00 0.09 0.09 93 1036.5
20260509020535 49 82 0.0 0.0 0.00 0.09 0.09 93 1036.4
20260509020038 49 82 0.0 0.0 0.00 0.09 0.09 93 1036.3
20260509015535 49 82 0.0 0.0 0.00 0.09 0.09 93 1036.3
20260509015042 49 82 0.0 0.0 0.00 0.09 0.09 93 1036.2
20260509014536 49 82 0.0 0.0 0.00 0.09 0.09 93 1036.2
20260509014036 49 82 0.0 0.0 0.00 0.09 0.09 92 1036.2
20260509013535 49 82 0.0 0.0 0.00 0.09 0.09 92 1036.2
20260509013035 49 82 0.0 0.0 0.00 0.09 0.09 92 1036.0
20260509012537 49 82 0.0 0.0 0.00 0.09 0.09 92 1036.1
20260509012035 49 82 0.0 0.0 0.00 0.09 0.09 92 1036.2
20260509011535 49 82 0.0 0.0 0.00 0.09 0.09 92 1036.0
20260509011034 50 82 0.0 0.0 0.00 0.09 0.09 91 1036.0
20260509010533 50 82 0.0 0.0 0.00 0.09 0.09 91 1036.0
20260509010033 50 82 0.0 0.0 0.00 0.09 0.09 91 1036.0
20260509005534 51 82 0.0 0.0 0.00 0.09 0.09 91 1035.9
20260509005033 51 82 0.0 0.0 0.00 0.09 0.09 91 1035.9
20260509004538 51 82 0.0 0.0 0.00 0.09 0.09 91 1035.8
20260509004036 51 82 0.0 0.0 0.00 0.09 0.09 91 1035.7
20260509003533 51 82 0.0 0.0 0.00 0.09 0.09 91 1035.7
20260509003038 51 82 0.0 0.0 0.00 0.09 0.09 91 1035.7
20260509002537 51 82 0.0 0.0 0.00 0.09 0.09 91 1035.6
20260509002032 51 82 0.0 0.0 0.00 0.09 0.09 90 1035.6
20260509001533 52 82 0.0 0.0 0.00 0.09 0.09 90 1035.6
20260509001033 52 82 0.0 0.0 0.00 0.09 0.09 90 1035.7
20260509000531 52 82 0.0 0.0 0.00 0.09 0.09 90 1035.7
20260509000031 52 82 0.0 0.0 0.01 0.09 0.09 90 1035.7
20260508235531 52 82 0.0 0.0 0.01 0.09 0.09 89 1035.5
20260508235032 52 82 0.0 0.0 0.01 0.09 0.09 89 1035.3
20260508234532 52 82 0.0 0.0 0.01 0.09 0.09 89 1035.2
20260508234030 52 82 0.0 0.0 0.01 0.09 0.09 88 1035.1
20260508233534 53 82 0.0 0.0 0.01 0.09 0.09 88 1035.1
20260508233029 53 82 0.0 0.0 0.01 0.09 0.09 88 1035.1
20260508232528 53 82 0.0 0.0 0.02 0.09 0.09 89 1035.1
20260508232027 52 82 0.0 0.0 0.02 0.09 0.09 89 1035.3
20260508231527 52 82 0.0 0.0 0.02 0.09 0.09 88 1035.4
20260508231029 52 82 0.0 0.0 0.02 0.09 0.09 88 1035.4
20260508230526 52 82 0.0 0.0 0.03 0.09 0.09 88 1035.5
20260508230026 53 82 0.0 0.0 0.02 0.08 0.08 87 1035.5
20260508225530 53 82 0.0 0.0 0.02 0.08 0.08 87 1035.5
20260508225026 53 82 0.0 0.0 0.02 0.08 0.08 86 1035.3
20260508224529 53 82 0.0 0.0 0.02 0.08 0.08 85 1035.3
20260508224025 53 82 0.0 0.0 0.02 0.08 0.08 84 1035.3
20260508223525 53 85 0.0 0.0 0.02 0.08 0.08 84 1035.3
20260508223036 54 77 0.0 0.0 0.02 0.08 0.08 83 1035.3
20260508222525 54 74 0.0 0.0 0.01 0.07 0.07 82 1035.2
20260508222025 55 69 0.0 0.0 0.01 0.07 0.07 81 1035.3
20260508221525 55 248 0.0 0.0 0.01 0.07 0.07 80 1035.1
20260508221025 56 248 0.0 0.0 0.01 0.07 0.07 78 1035.1
20260508220523 56 249 0.0 0.0 0.00 0.06 0.06 76 1034.8
20260508220030 56 249 0.0 0.0 0.00 0.06 0.06 74 1034.7
20260508215527 57 249 0.0 0.0 0.00 0.06 0.06 73 1034.6
20260508215024 57 249 0.0 0.0 0.00 0.06 0.06 74 1034.6
20260508214524 57 249 0.0 0.0 0.00 0.06 0.06 74 1034.5
20260508214023 57 277 0.0 0.0 0.00 0.06 0.06 72 1034.5
20260508213522 57 287 0.0 0.0 0.00 0.06 0.06 72 1034.5
20260508213022 57 287 0.0 0.0 0.00 0.06 0.06 72 1034.6
20260508212521 57 287 0.0 0.0 0.00 0.06 0.06 72 1034.7
20260508212020 57 287 0.0 0.0 0.00 0.06 0.06 71 1034.8
20260508211519 57 263 0.0 0.0 0.00 0.06 0.06 73 1034.9
20260508211020 57 263 0.0 0.0 0.00 0.06 0.06 72 1035.0
20260508210519 57 264 0.0 0.0 0.00 0.06 0.06 72 1035.1
20260508210022 57 74 0.0 0.0 0.00 0.06 0.06 73 1035.2
20260508205518 57 84 0.0 0.0 0.00 0.06 0.06 76 1035.2
20260508205019 57 83 0.0 0.0 0.01 0.06 0.06 75 1035.0
20260508204519 57 75 0.0 0.0 0.02 0.06 0.06 78 1035.0
20260508204018 56 77 0.0 0.0 0.03 0.06 0.06 75 1035.1
20260508203517 57 77 0.0 0.0 0.03 0.06 0.06 73 1035.3
20260508203023 57 74 0.0 0.0 0.03 0.06 0.06 72 1035.3
20260508202517 58 82 0.0 0.0 0.03 0.06 0.06 72 1035.3
20260508202017 57 75 0.0 3.0 0.03 0.06 0.06 78 1035.2
20260508201517 57 94 0.0 4.0 0.03 0.06 0.06 76 1035.3
20260508201016 57 70 1.0 4.0 0.03 0.06 0.06 78 1035.3
20260508200516 57 97 0.0 4.0 0.03 0.06 0.06 79 1035.4
20260508200018 56 102 0.0 5.0 0.03 0.06 0.06 83 1035.6
20260508195515 56 74 2.0 6.0 0.03 0.06 0.06 79 1035.8
20260508195014 56 93 2.0 6.0 0.02 0.05 0.05 71 1035.7
20260508194515 58 98 0.0 4.0 0.01 0.04 0.04 68 1035.6
20260508194014 58 98 0.0 5.0 0.00 0.03 0.03 65 1035.5
20260508193514 59 115 1.0 5.0 0.00 0.03 0.03 63 1035.4
20260508193016 60 277 0.0 4.0 0.00 0.03 0.03 62 1035.3
20260508192513 60 93 0.0 6.0 0.00 0.03 0.03 61 1035.3
20260508192013 61 91 1.0 6.0 0.00 0.03 0.03 58 1035.4
20260508191529 62 84 0.0 1.0 0.00 0.03 0.03 63 1035.5
20260508191011 61 283 0.0 5.0 0.00 0.03 0.03 61 1035.5
20260508190510 61 74 0.0 5.0 0.00 0.03 0.03 63 1035.7
20260508190008 60 93 0.0 4.0 0.00 0.03 0.03 67 1035.7
20260508185506 59 77 0.0 4.0 0.00 0.03 0.03 62 1035.7
20260508185005 58 285 0.0 5.0 0.00 0.03 0.03 63 1035.9
20260508184504 58 110 1.0 5.0 0.00 0.03 0.03 68 1035.9
20260508184002 58 96 0.0 4.0 0.00 0.03 0.03 71 1035.9
20260508183502 57 82 0.0 6.0 0.00 0.03 0.03 70 1036.0
20260508183002 57 104 0.0 6.0 0.00 0.03 0.03 69 1036.1
20260508182503 57 79 0.0 2.0 0.00 0.03 0.03 72 1036.0
20260508182001 56 86 0.0 3.0 0.00 0.03 0.03 69 1036.1
20260508181502 56 103 0.0 3.0 0.00 0.03 0.03 71 1036.1
20260508181002 56 94 0.0 4.0 0.00 0.03 0.03 73 1036.2
20260508180500 54 83 0.0 6.0 0.00 0.03 0.03 75 1036.1
20260508180000 53 84 0.0 6.0 0.00 0.03 0.03 78 1036.1
20260508175501 53 94 0.0 11.0 0.00 0.03 0.03 75 1036.2
20260508175004 52 65 3.0 12.0 0.00 0.03 0.03 74 1036.4
20260508174612 53 98 4.0 12.0 0.00 0.03 0.03 72 1036.6
20260508174100 53 91 2.0 10.0 0.00 0.03 0.03 73 1036.6
20260508173559 53 94 2.0 14.0 0.00 0.03 0.03 71 1036.7
20260508173100 54 76 3.0 14.0 0.00 0.03 0.03 72 1036.8
20260508172604 54 89 1.0 7.0 0.00 0.03 0.03 73 1036.7
20260508172100 54 110 1.0 12.0 0.00 0.03 0.03 71 1036.5
20260508171600 55 82 3.0 12.0 0.00 0.03 0.03 65 1036.6
20260508171103 56 86 1.0 4.0 0.00 0.03 0.03 62 1036.4
20260508170559 56 85 0.0 5.0 0.00 0.03 0.03 63 1036.3
20260508170059 57 72 1.0 6.0 0.00 0.03 0.03 60 1036.3
20260508165558 57 72 2.0 6.0 0.00 0.03 0.03 60 1036.1
20260508165057 57 69 1.0 9.0 0.00 0.03 0.03 66 1036.1
20260508164604 56 83 2.0 9.0 0.00 0.03 0.03 65 1036.2
20260508164056 56 169 0.0 9.0 0.00 0.03 0.03 64 1036.2
20260508163556 55 84 0.0 9.0 0.00 0.03 0.03 64 1036.6
20260508163055 56 78 1.0 9.0 0.00 0.03 0.03 62 1036.6
20260508162555 56 82 0.0 8.0 0.00 0.03 0.03 66 1036.6
20260508162055 56 98 0.0 8.0 0.00 0.03 0.03 63 1036.6
20260508161558 55 65 0.0 5.0 0.00 0.03 0.03 66 1036.6
20260508161055 55 92 0.0 4.0 0.00 0.03 0.03 63 1036.6
20260508160553 54 77 0.0 6.0 0.00 0.03 0.03 65 1036.9
20260508160053 55 76 0.0 10.0 0.00 0.03 0.03 63 1036.9
20260508155553 55 82 1.0 10.0 0.00 0.03 0.03 64 1036.8
20260508155053 55 72 3.0 8.0 0.00 0.03 0.03 62 1036.8
20260508154552 55 89 0.0 7.0 0.00 0.03 0.03 64 1036.9
20260508154052 55 95 1.0 5.0 0.00 0.03 0.03 64 1036.9
20260508153552 55 93 0.0 1.0 0.00 0.03 0.03 65 1036.9
20260508153052 55 99 0.0 8.0 0.00 0.03 0.03 65 1036.8
20260508152552 55 83 1.0 8.0 0.00 0.03 0.03 67 1036.7
20260508152052 56 75 0.0 4.0 0.00 0.03 0.03 66 1036.7
20260508151552 56 89 1.0 6.0 0.00 0.03 0.03 70 1036.8
20260508151051 55 274 2.0 6.0 0.00 0.03 0.03 65 1036.8
20260508150547 55 89 0.0 6.0 0.00 0.03 0.03 70 1037.1
20260508150047 54 97 2.0 6.0 0.00 0.03 0.03 70 1037.0
20260508145547 54 78 2.0 5.0 0.00 0.03 0.03 71 1037.1
20260508145050 54 100 2.0 5.0 0.00 0.03 0.03 74 1037.1
20260508144546 53 89 0.0 5.0 0.00 0.03 0.03 78 1037.2
20260508144044 52 99 0.0 5.0 0.00 0.03 0.03 80 1037.3
20260508143542 51 92 1.0 5.0 0.00 0.03 0.03 79 1037.4
20260508143041 50 89 1.0 4.0 0.00 0.03 0.03 80 1037.4
20260508142540 50 94 1.0 3.0 0.00 0.03 0.03 82 1037.3
20260508142040 49 92 1.0 3.0 0.00 0.03 0.03 85 1037.3
20260508141538 48 77 0.0 2.0 0.00 0.03 0.03 87 1037.2
20260508141036 48 106 0.0 4.0 0.00 0.03 0.03 89 1037.3
20260508140535 47 79 0.0 4.0 0.00 0.03 0.03 89 1037.4
20260508140035 46 94 1.0 4.0 0.01 0.03 0.03 92 1037.4
20260508135534 46 82 0.0 3.0 0.01 0.03 0.03 94 1037.3
20260508135034 45 90 0.0 0.0 0.01 0.03 0.03 94 1037.3
20260508134536 44 90 0.0 0.0 0.01 0.03 0.03 93 1037.4
20260508134034 44 86 0.0 0.0 0.01 0.03 0.03 93 1037.6
20260508133534 44 86 0.0 0.0 0.01 0.03 0.03 93 1037.6
20260508133034 44 86 0.0 0.0 0.01 0.03 0.03 94 1037.8
20260508132534 44 86 0.0 0.0 0.01 0.03 0.03 94 1037.6
20260508132033 43 86 0.0 0.0 0.01 0.03 0.03 94 1037.7
20260508131539 43 86 0.0 0.0 0.01 0.03 0.03 94 1037.8
20260508131032 43 86 0.0 0.0 0.01 0.03 0.03 93 1037.9
20260508130533 43 86 0.0 0.0 0.01 0.03 0.03 93 1037.9
20260508130032 43 86 0.0 0.0 0.00 0.02 0.02 93 1037.9
20260508125532 43 86 0.0 0.0 0.00 0.02 0.02 93 1037.8
20260508125033 43 86 0.0 0.0 0.00 0.02 0.02 93 1037.8
20260508124532 43 86 0.0 0.0 0.00 0.02 0.02 93 1037.8
20260508124032 43 86 0.0 0.0 0.00 0.02 0.02 93 1037.8
20260508123531 43 85 0.0 0.0 0.00 0.02 0.02 93 1037.8
20260508123032 43 83 0.0 0.0 0.00 0.02 0.02 93 1037.8
20260508122531 43 83 0.0 0.0 0.00 0.02 0.02 93 1037.8
20260508122031 43 83 0.0 0.0 0.00 0.02 0.02 94 1037.7
20260508121531 43 83 0.0 0.0 0.00 0.02 0.02 94 1037.7
20260508121031 43 83 0.0 0.0 0.00 0.02 0.02 93 1037.8
20260508120529 43 83 0.0 0.0 0.00 0.02 0.02 94 1037.6
20260508120038 42 83 0.0 0.0 0.00 0.02 0.02 94 1037.6
20260508115529 42 82 0.0 0.0 0.00 0.02 0.02 94 1037.5
20260508115029 42 82 0.0 0.0 0.00 0.02 0.02 94 1037.3
20260508114529 42 82 0.0 0.0 0.00 0.02 0.02 94 1037.4
20260508114029 42 82 0.0 0.0 0.00 0.02 0.02 94 1037.3
20260508113529 41 82 0.0 0.0 0.00 0.02 0.02 94 1037.4
20260508113030 41 82 0.0 0.0 0.00 0.02 0.02 94 1037.5
20260508112529 41 82 0.0 0.0 0.00 0.02 0.02 94 1037.3
20260508112028 40 82 0.0 0.0 0.00 0.02 0.02 94 1037.2
20260508111531 40 82 0.0 0.0 0.00 0.02 0.02 94 1037.4
20260508111029 40 82 0.0 0.0 0.00 0.02 0.02 94 1037.4
20260508110527 40 82 0.0 0.0 0.00 0.02 0.02 94 1037.4
20260508110027 40 82 0.0 0.0 0.00 0.02 0.02 94 1037.6
20260508105527 40 82 0.0 0.0 0.00 0.02 0.02 94 1037.4
20260508105027 39 82 0.0 0.0 0.00 0.02 0.02 94 1037.3
20260508104525 39 82 0.0 0.0 0.00 0.02 0.02 94 1037.2
20260508104025 39 82 0.0 0.0 0.00 0.02 0.02 94 1037.1
20260508103525 39 82 0.0 0.0 0.00 0.02 0.02 94 1037.1
20260508103026 39 82 0.0 0.0 0.00 0.02 0.02 94 1037.1
20260508102525 39 82 0.0 0.0 0.00 0.02 0.02 94 1037.0
20260508102024 38 82 0.0 1.0 0.00 0.02 0.02 94 1036.9
20260508101525 38 82 0.0 1.0 0.00 0.02 0.02 94 1036.8
20260508101023 38 82 0.0 1.0 0.00 0.02 0.02 94 1036.8
20260508100523 38 82 0.0 0.0 0.00 0.02 0.02 94 1036.7
20260508100023 38 82 0.0 0.0 0.00 0.02 0.02 94 1036.7
20260508095523 38 82 0.0 0.0 0.00 0.02 0.02 93 1036.7
20260508095022 38 82 0.0 0.0 0.00 0.02 0.02 94 1036.8
20260508094523 38 82 0.0 1.0 0.00 0.02 0.02 94 1037.0
20260508094022 38 82 0.0 1.0 0.00 0.02 0.02 94 1036.8
20260508093522 38 82 0.0 0.0 0.00 0.02 0.02 93 1036.8
20260508093023 37 82 0.0 0.0 0.00 0.02 0.02 93 1036.9
20260508092522 37 82 0.0 1.0 0.00 0.02 0.02 93 1036.8
20260508092022 37 82 0.0 1.0 0.00 0.02 0.02 93 1036.8
20260508091523 38 82 0.0 0.0 0.00 0.02 0.02 93 1036.9
20260508091023 38 82 0.0 0.0 0.00 0.02 0.02 93 1036.9
20260508090520 38 82 0.0 1.0 0.00 0.02 0.02 94 1036.9
20260508090021 39 82 0.0 1.0 0.00 0.02 0.02 94 1037.0
20260508085520 38 82 0.0 0.0 0.00 0.02 0.02 94 1036.9
20260508085019 38 73 0.0 0.0 0.00 0.02 0.02 94 1036.7
20260508084519 38 74 0.0 0.0 0.00 0.02 0.02 93 1036.5